[[{"header":{"parameterUnit":"m.s-1","parameterCategory":1,"la1":30.2991,"la2":30.254,"lo1":-89.0895,"lo2":-89.0444,"dx":0.0017,"dy":0.0017,"nx":28,"ny":28,"refTime":"2022-12-12T03:00:00:Z","depth":0,"parameterNumber":2,"parameterNumberName":"U-component_of_WINDS"},"data":[0,0,0,0,0,0,0,0,0,0,0,0,0,0,0,0,0,0,0,0,0,0,0,0,0,0,0,0,0,0,0,0,0,0,0,0,0,0,0,0,0,0,0,0,0,0,0,0,0,0,0,0,0,0,0,0,0,0,-1.037,-1.037,0,-1.0343,-1.0342,-1.0342,-1.0295,-1.0294,-1.0293,-1.0292,-1.0264,-1.0264,-1.0264,0,0,0,0,0,0,0,0,0,0,0,0,0,-1.0385,-1.0385,-1.037,-1.037,-1.037,-1.0343,-1.0342,-1.0342,-1.0295,-1.0294,-1.0293,-1.0292,-1.0264,-1.0264,-1.0264,0,0,0,0,0,0,0,0,0,0,0,0,0,-1.037,-1.0385,-1.037,-1.0343,-1.034,-1.0343,-1.0342,-1.0342,-1.0295,-1.0294,-1.0292,-1.0291,-1.0264,-1.0264,-1.0264,-1.0292,0,0,-1.0265,-1.0265,0,0,0,0,0,0,0,0,-1.0371,-1.0369,-1.0347,-1.0345,-1.0342,-1.0321,-1.0337,-1.0325,-1.0295,-1.0312,-1.0292,-1.029,-1.0284,-1.0282,-1.028,-1.029,-1.0289,-1.0265,-1.0265,-1.0265,-1.0265,0,0,0,0,0,0,0,-1.0372,-1.037,-1.0359,-1.0347,-1.0344,-1.0333,-1.0329,-1.0335,-1.0306,-1.0311,-1.0307,-1.0304,-1.0282,-1.028,-1.0279,-1.0289,-1.0265,-1.0265,-1.0265,-1.0265,-1.0325,-1.0326,0,0,0,0,0,0,-1.0377,-1.0372,-1.036,-1.0359,-1.0353,-1.0334,-1.033,-1.0329,-1.0306,-1.0301,-1.0306,-1.0302,-1.0281,-1.0279,-1.0278,-1.0311,-1.0265,-1.0265,-1.0265,-1.0323,-1.0325,-1.0326,0,0,0,0,0,0,-1.0377,-1.0376,-1.0361,-1.0364,-1.0361,-1.0335,-1.0334,-1.0329,-1.0327,-1.0302,-1.0297,-1.0309,-1.0279,-1.0278,-1.029,-1.0309,-1.0265,-1.0265,-1.0321,-1.0324,-1.0326,-1.0376,0,0,0,0,0,0,-1.0378,-1.0377,-1.0386,-1.0365,-1.0361,-1.0372,-1.0335,-1.0329,-1.0327,-1.0323,-1.0303,-1.0299,-1.0278,-1.029,-1.029,-1.0309,-1.0265,-1.0319,-1.0322,-1.0325,-1.0373,-1.038,-1.0386,0,0,0,0,0,-1.0379,-1.04,-1.0387,-1.0385,-1.0372,-1.0374,-1.0372,-1.0348,-1.0329,-1.0339,-1.0323,-1.03,-1.0307,-1.0291,-1.0291,-1.031,-1.0318,-1.0321,-1.0325,-1.037,-1.0378,-1.0386,0,0,0,0,0,0,-1.0423,-1.0397,-1.0381,-1.0397,-1.0388,-1.0366,-1.0377,-1.0357,-1.0353,-1.0349,-1.032,-1.0316,-1.0332,-1.0322,-1.0305,-1.0338,-1.0309,-1.0313,-1.0343,-1.0352,-1.0358,-1.0361,-1.0265,0,0,0,0,0,-1.0435,-1.0438,-1.0415,-1.0431,-1.0427,-1.0403,-1.0403,-1.0385,-1.0375,-1.0371,-1.0356,-1.0348,-1.0349,-1.0349,-1.0348,-1.0371,-1.0368,-1.0385,-1.0392,-1.0397,-1.0401,-1.0416,-1.0424,-1.0338,-1.0338,-1.0338,0,0,-1.0459,-1.0445,-1.0449,-1.044,-1.0431,-1.0436,-1.04,-1.0406,-1.041,-1.0372,-1.0383,-1.0372,-1.0361,-1.0379,-1.0386,-1.0371,-1.0424,-1.0402,-1.0406,-1.0407,-1.042,-1.0428,-1.0435,-1.034,-1.0339,-1.0339,0,0,-1.0506,-1.0495,-1.0508,-1.0501,-1.0489,-1.0473,-1.0477,-1.0458,-1.045,-1.0461,-1.0434,-1.0438,-1.0439,-1.0433,-1.043,-1.048,-1.0459,-1.0481,-1.0516,-1.0531,-1.0537,-1.0543,-1.0563,-1.057,-1.0484,-1.0484,-1.0484,0,-1.0537,-1.0543,-1.0518,-1.0526,-1.0525,-1.0492,-1.0507,-1.0501,-1.0489,-1.0489,-1.0472,-1.0476,-1.0466,-1.0484,-1.0496,-1.0494,-1.0499,-1.0482,-1.0538,-1.0544,-1.0549,-1.0568,-1.0575,-1.0487,-1.0487,-1.0486,-1.0486,0,-1.0584,-1.0589,-1.0601,-1.0592,-1.0591,-1.0603,-1.0581,-1.0584,-1.0568,-1.0555,-1.0568,-1.0555,-1.0553,-1.0556,-1.0539,-1.0573,-1.0564,-1.0544,-1.0514,-1.0561,-1.0578,-1.0585,-1.0491,-1.049,-1.0489,-1.0489,0,0,-1.0655,-1.0635,-1.064,-1.0637,-1.0623,-1.0627,-1.0638,-1.0637,-1.0641,-1.0635,-1.0645,-1.0649,-1.0631,-1.0628,-1.0611,-1.0624,-1.0667,-1.0602,-1.0601,-1.0616,-1.0707,-1.0723,-1.0732,-1.0654,-1.0655,-1.0656,-1.0709,0,-1.07,-1.0718,-1.0698,-1.0721,-1.0726,-1.0698,-1.0708,-1.0702,-1.0691,-1.0695,-1.0683,-1.0687,-1.0662,-1.066,-1.0672,-1.066,-1.0685,-1.0655,-1.0665,-1.0665,-1.0669,-1.074,-1.0757,-1.0807,-1.0715,-1.0716,-1.0717,0,-1.0753,-1.0752,-1.0776,-1.0764,-1.0766,-1.0775,-1.0774,-1.0778,-1.0772,-1.0763,-1.0762,-1.0742,-1.0755,-1.0727,-1.0745,-1.0725,-1.0728,-1.0724,-1.0725,-1.0725,-1.0694,-1.0744,-1.0822,-1.0831,-1.0727,-1.0726,-1.0725,0,-1.0806,-1.0809,-1.0825,-1.0823,-1.0809,-1.0817,-1.0812,-1.0804,-1.0806,-1.0805,-1.0806,-1.0807,-1.0808,-1.081,-1.0792,-1.0773,-1.0814,-1.0783,-1.0809,-1.0809,-1.0818,-1.0818,-1.09,-1.0819,-1.0819,-1.0819,-1.0818,0,-1.0858,-1.0874,-1.0849,-1.0859,-1.0877,-1.0855,-1.0874,-1.0866,-1.086,-1.0869,-1.0844,-1.0853,-1.0829,-1.0836,-1.0822,-1.0841,-1.0841,-1.0836,-1.0832,-1.0839,-1.084,-1.084,-1.0837,-1.0821,-1.082,-1.082,-1.0819,0,-1.0919,-1.0902,-1.0918,-1.0905,-1.0902,-1.0917,-1.0906,-1.0915,-1.0904,-1.0916,-1.0918,-1.09,-1.0908,-1.0891,-1.0895,-1.0886,-1.0914,-1.0904,-1.0916,-1.0914,-1.0941,-1.0939,-1.1026,-1.1038,-1.0949,-1.095,-1.095,0,-1.0953,-1.0966,-1.0955,-1.0959,-1.0956,-1.0963,-1.0966,-1.0945,-1.0949,-1.0945,-1.0956,-1.0961,-1.0965,-1.0979,-1.0967,-1.0972,-1.0963,-1.0993,-1.0963,-1.0971,-1.0966,-1.0966,-1.0968,-1.0999,-1.1001,-1.1001,-1.1002,0,-1.1017,-1.101,-1.1014,-1.1017,-1.1021,-1.1022,-1.1021,-1.1027,-1.1005,-1.1011,-1.1019,-1.1022,-1.1029,-1.1036,-1.1039,-1.1034,-1.1016,-1.1012,-1.1018,-1.1025,-1.1033,-1.1031,-1.0935,-1.101,-1.1009,-1.1008,-1.1008,-1.1008,-1.1067,-1.1078,-1.1073,-1.108,-1.1078,-1.1079,-1.1088,-1.108,-1.1086,-1.109,-1.1078,-1.109,-1.1087,-1.1088,-1.1087,-1.1097,-1.1083,-1.1092,-1.1094,-1.1097,-1.1103,-1.1031,-1.1097,-1.1097,-1.1097,-1.1096,-1.1096,0,-1.1131,-1.1128,-1.1134,-1.1135,-1.1142,-1.1124,-1.1124,-1.1131,-1.1141,-1.114,-1.1145,-1.1156,-1.1164,-1.1155,-1.1161,-1.1172,-1.1164,-1.1174,-1.1174,-1.1174,-1.1113,-1.1108,-1.1181,-1.1181,-1.1181,-1.1181,-1.1181,-1.1181,-1.1165,-1.1184,-1.1177,-1.1196,-1.1192,-1.1204,-1.1205,-1.1207,-1.1206,-1.122,-1.1227,-1.1221,-1.1218,-1.1224,-1.1232,-1.1229,-1.1233,-1.1248,-1.1242,-1.1186,-1.1177,-1.1169,-1.1164,-1.1248,-1.1248,-1.1302,-1.1302,-1.1303]},{"header":{"parameterUnit":"m.s-1","parameterCategory":1,"la1":30.2991,"la2":30.254,"lo1":-89.0895,"lo2":-89.0444,"dx":0.0017,"dy":0.0017,"nx":28,"ny":28,"refTime":"2022-12-12T03:00:00:Z","depth":0,"parameterNumber":3,"parameterNumberName":"V-component_of_WINDS"},"data":[0,0,0,0,0,0,0,0,0,0,0,0,0,0,0,0,0,0,0,0,0,0,0,0,0,0,0,0,0,0,0,0,0,0,0,0,0,0,0,0,0,0,0,0,0,0,0,0,0,0,0,0,0,0,0,0,0,0,0.9944,0.9943,0,0.9922,0.9922,0.9922,0.994,0.9941,0.9942,0.9943,0.9914,0.9913,0.9911,0,0,0,0,0,0,0,0,0,0,0,0,0,0.9996,0.9995,0.9944,0.9943,0.9943,0.9922,0.9922,0.9921,0.994,0.9941,0.9942,0.9943,0.9915,0.9913,0.9911,0,0,0,0,0,0,0,0,0,0,0,0,0,0.9973,0.9994,0.9944,0.995,0.9951,0.9922,0.9922,0.9921,0.994,0.9941,0.9943,0.9944,0.9915,0.9913,0.9911,0.9873,0,0,0.9904,0.9903,0,0,0,0,0,0,0,0,0.9975,0.9971,0.9949,0.995,0.995,0.9935,0.993,0.9905,0.994,0.9944,0.9943,0.9944,0.992,0.9917,0.9911,0.9872,0.9871,0.9904,0.9903,0.9902,0.9901,0,0,0,0,0,0,0,0.9976,0.9972,0.9935,0.9949,0.9949,0.9952,0.995,0.9925,0.9925,0.9944,0.9945,0.9943,0.992,0.9913,0.991,0.987,0.9904,0.9902,0.9901,0.99,0.9798,0.9797,0,0,0,0,0,0,0.9978,0.9974,0.9936,0.9934,0.9966,0.995,0.9948,0.9939,0.9926,0.9925,0.9942,0.9943,0.9916,0.9913,0.9909,0.9863,0.9902,0.99,0.9898,0.98,0.9798,0.9797,0,0,0,0,0,0,0.9979,0.9974,0.9936,0.9954,0.995,0.9948,0.9937,0.9938,0.993,0.9924,0.9924,0.9934,0.9917,0.9912,0.9882,0.9863,0.9898,0.9896,0.9801,0.9799,0.9797,0.9772,0,0,0,0,0,0,0.998,0.9974,0.9961,0.9954,0.9949,0.9912,0.9936,0.9936,0.9927,0.9929,0.9917,0.9916,0.9917,0.9886,0.988,0.986,0.9895,0.9803,0.98,0.9798,0.9774,0.9769,0.9765,0,0,0,0,0,0.9982,0.9954,0.9961,0.9956,0.9933,0.9911,0.9907,0.9911,0.9925,0.9911,0.9907,0.9916,0.9866,0.9882,0.9876,0.9855,0.9804,0.9801,0.9798,0.9776,0.977,0.9765,0,0,0,0,0,0,0.9956,0.9953,0.996,0.9929,0.992,0.9914,0.9896,0.9905,0.989,0.9892,0.9896,0.9893,0.9861,0.9855,0.9874,0.9818,0.9837,0.9833,0.9822,0.9816,0.9812,0.9813,0.9893,0,0,0,0,0,0.9948,0.9932,0.9929,0.9901,0.9897,0.9897,0.9888,0.9892,0.9882,0.9878,0.9871,0.986,0.9841,0.9829,0.9811,0.9774,0.9771,0.9757,0.9752,0.9748,0.9743,0.9722,0.9715,0.9787,0.9787,0.9787,0,0,0.9928,0.9924,0.9914,0.9896,0.989,0.9872,0.9894,0.9874,0.986,0.9874,0.9846,0.9841,0.9828,0.9794,0.9778,0.9788,0.9723,0.9744,0.9741,0.9739,0.9718,0.9712,0.9706,0.9785,0.9785,0.9786,0,0,0.9884,0.988,0.9857,0.985,0.9841,0.9842,0.9836,0.9829,0.9827,0.9799,0.9809,0.9791,0.976,0.975,0.9741,0.9693,0.97,0.9687,0.9661,0.9641,0.9635,0.963,0.9612,0.9605,0.9683,0.9683,0.9683,0,0.986,0.9835,0.9843,0.9822,0.9814,0.9828,0.9804,0.9796,0.9781,0.9774,0.9785,0.9746,0.9738,0.9702,0.969,0.9683,0.9675,0.9688,0.9636,0.9631,0.9626,0.9609,0.9602,0.9682,0.9682,0.9682,0.9682,0,0.9806,0.9788,0.977,0.9758,0.9747,0.9724,0.9727,0.9715,0.972,0.9719,0.969,0.9682,0.9662,0.9654,0.9658,0.9618,0.9624,0.9636,0.9655,0.9618,0.9601,0.9595,0.9679,0.968,0.968,0.9681,0,0,0.9743,0.9736,0.9729,0.9724,0.9715,0.97,0.9678,0.9662,0.9651,0.964,0.962,0.9593,0.9604,0.9593,0.9596,0.9578,0.954,0.9592,0.9592,0.9581,0.9494,0.9484,0.9476,0.9545,0.9544,0.9543,0.9494,0,0.9697,0.9661,0.9667,0.963,0.9614,0.9628,0.9608,0.9599,0.9598,0.9581,0.9579,0.956,0.9576,0.957,0.9553,0.9548,0.9522,0.9552,0.9524,0.9523,0.9526,0.9468,0.9458,0.9412,0.9488,0.9487,0.9486,0,0.9639,0.9628,0.959,0.9585,0.9578,0.956,0.9545,0.9531,0.9521,0.9521,0.951,0.9516,0.9491,0.9513,0.9478,0.9498,0.9487,0.9483,0.9482,0.9478,0.9501,0.9461,0.9398,0.939,0.9476,0.9477,0.9478,0,0.9595,0.9571,0.9545,0.954,0.9533,0.952,0.9516,0.9508,0.9498,0.9484,0.9477,0.946,0.9451,0.9437,0.9438,0.9453,0.9402,0.9423,0.9399,0.9399,0.9386,0.9387,0.9318,0.9382,0.9382,0.9382,0.9382,0,0.9542,0.9518,0.9526,0.9509,0.9483,0.949,0.9462,0.946,0.9453,0.9435,0.9445,0.9428,0.9431,0.9413,0.9414,0.9384,0.938,0.9377,0.9377,0.9376,0.9376,0.9367,0.937,0.938,0.938,0.9381,0.9381,0,0.9488,0.9493,0.9465,0.9462,0.946,0.944,0.9436,0.942,0.942,0.9397,0.9392,0.9391,0.9371,0.9371,0.9347,0.9347,0.9311,0.9315,0.9314,0.9315,0.929,0.9292,0.9213,0.9202,0.9274,0.9273,0.9273,0,0.9453,0.9436,0.9431,0.9421,0.9417,0.94,0.9391,0.9397,0.9386,0.9374,0.9359,0.934,0.9325,0.9291,0.9287,0.9268,0.9271,0.9245,0.9268,0.9267,0.9269,0.9269,0.9267,0.9239,0.9239,0.9238,0.9237,0,0.9391,0.9394,0.9381,0.9368,0.9357,0.9347,0.9337,0.9328,0.9333,0.932,0.9301,0.9289,0.9266,0.9246,0.9228,0.9222,0.9229,0.9231,0.9224,0.9221,0.9221,0.9219,0.93,0.9232,0.9232,0.9233,0.9233,0.9233,0.9344,0.9329,0.9324,0.9308,0.9303,0.9294,0.9279,0.9278,0.9262,0.9245,0.925,0.9227,0.9217,0.9195,0.9187,0.9168,0.9177,0.9167,0.9164,0.9162,0.9158,0.9225,0.9165,0.9165,0.9165,0.9165,0.9165,0,0.9281,0.9279,0.9265,0.9253,0.924,0.9252,0.9242,0.923,0.9211,0.9203,0.9189,0.9165,0.9147,0.9142,0.9123,0.9109,0.9112,0.9103,0.9103,0.9101,0.9152,0.9159,0.9101,0.9101,0.9101,0.9101,0.9101,0.9101,0.9247,0.9222,0.9224,0.9196,0.9193,0.9173,0.9166,0.9158,0.9151,0.9126,0.9111,0.9109,0.9101,0.9082,0.9064,0.9063,0.9055,0.9045,0.9045,0.9092,0.9098,0.9104,0.9111,0.9043,0.9043,0.8996,0.8995,0.8995]}]]